Tracking 28790 objects as of 19-Apr-2024
HD Live streaming from Space Station
objects crossing your sky now

GALILEO-FM4

Track GALILEO-FM4 now!
GALILEO-FM4 is classified as:


NORAD ID: 38858
Int'l Code: 2012-055B
Perigee: 23,924.1 km
Apogee: 23,936.7 km
Inclination: 55.4 °
Period: 874.9 minutes
Semi major axis: 30301 km
RCS: 13.2202 m2 (large)
Launch date: October 12, 2012
Source: European Space Agency (ESA)
Launch site: FRENCH GUIANA (FRGUI)

GALILEO-FM4 is one of the first four Galileo satellites which are part of system's in-orbit validation, or IOV, phase.
Your satellite tracking list
Your tracking list is empty




NASA's NSSDC Master Catalog

Two Line Element Set (TLE):
1 38858U 12055B   24107.81109763  .00000052  00000-0  00000-0 0  9991
2 38858  55.3847 123.3387 0002075 284.5440  75.4769  1.64592225   109
Source of the keplerian elements: AFSPC